Regional Weather Roundup
Issued by NWS

Home | Current Version | Previous Version | Text Only | Print | Product List | Glossary Off
Versions: 1 2 3 4 5 6 7 8 9 10 11 12 13 14 15 16 17 18 19 20 21 22 23 24 25 26 27 28 29 30 31 32 33 34 35 36 37 38 39 40 41 42 43 44 45 46 47 48 49 50

000
ASUS43 KTOP 281359
RWRKS

WEATHER ROUNDUP FOR KANSAS
NATIONAL WEATHER SERVICE GOODLAND KS
800 AM CST WED JAN 28 2015

NOTE:  "FAIR" INDICATES FEW OR NO CLOUDS BELOW 12,000 FEET WITH NO
SIGNIFICANT WEATHER AND/OR OBSTRUCTIONS TO VISIBILITY.

KSZ001>006-013>018-027>032-041>047-281500-
NORTHWEST KANSAS

CITY           SKY/WX    TMP DP  RH WIND       PRES   REMARKS
GOODLAND       CLOUDY    38  29  70 NW10      29.95R WCI  31
HAYS           PTCLDY    37  27  65 W10       29.84S WCI  30
HILL CITY      FAIR      35  28  75 W9        29.86R
RUSSELL        PTCLDY    38  32  79 SW9       29.82R
$$

KSZ061>065-074>080-084>089-281500-
SOUTHWEST KANSAS

CITY           SKY/WX    TMP DP  RH WIND       PRES   REMARKS
DODGE CITY     PTCLDY    43  33  68 W9        29.88R
ELKHART          N/A     52  28  39 NW16        N/A
GARDEN CITY    MOCLDY    37  31  78 W7        29.89R
LIBERAL        CLOUDY    37  30  75 SW8       29.94S
$$

KSZ066>073-081>083-090>101-281500-
SOUTHEAST KANSAS

CITY           SKY/WX    TMP DP  RH WIND       PRES   REMARKS
CHANUTE        CLEAR     47  37  68 S15       29.97F
COFFEYVILLE    CLEAR     48  37  65 S8        30.00S
HUTCHINSON     CLEAR     39  33  79 S9        29.87F
MEDICINE LODGE   N/A     44  35  70 S5        29.89S
NEWTON         CLEAR     45  34  65 S12       29.90F
PARSONS        CLEAR     48  37  65 S7        29.99F
WICHITA INTL   MOCLDY    42  35  76 S10       29.90S
WICHITA JABRA  CLEAR     48  37  65 S14       29.90F
WINFIELD       CLEAR     54  31  41 S15       29.94S
$$

KSZ007>012-019>026-033>040-048>060-102>105-281500-
NORTHEAST KANSAS

CITY           SKY/WX    TMP DP  RH WIND       PRES   REMARKS
CONCORDIA      CLEAR     40  32  73 CALM      29.81S
EMPORIA        CLEAR     41  35  79 S15       29.90F
LAWRENCE       CLEAR     35  29  78 E9        29.93F
MANHATTAN      PTCLDY    30  29  96 CALM      29.86F
OLATHE IND     CLEAR     42  32  67 S13       29.95F
OLATHE EXE     CLEAR     39  31  72 S8        29.94F
SALINA         CLEAR     40  32  73 S6        29.85S
TOPEKA BILLARD CLEAR     33  29  85 E3        29.90F
TOPEKA FORBES  CLEAR     42  33  70 S8        29.89F
$$



USA.gov is the U.S. government's official web portal to all federal, state and local government web resources and services.